カタログに戻る

YAOGAN 27

運用中軍事SSO
NORAD 40878·PAYLOAD·🇨🇳 China

打ち上げ Aug 27, 2015 から Taiyuan Satellite Launch Center

Loading…

次のパス (今後24時間)

TLE

最新Source: Space-Track

元期: Sep 14, 2026, 13:56 UTC

1 40878U 15040A   26257.58088823 -.00000455  00000-0 -10855-2 0  9998
2 40878 100.1263 240.1193 0008525  13.1422 346.9913 13.16072718529428

AllMySatでYAOGAN 27をリアルタイム追跡

Download on the App Store